GFSFLT1_prec_precacc24_336.txt.gz
Total_Precipitation_Accumulation
0.00 0.00 0.00 0.00 0.00 0.00 0.00 0.00 0.00 0.02 0.35 0.19 0.14 0.15 0.15 0.84 1.13 1.19 0.67 0.31 0.16 0.07 0.04 0.03 0.05 0.11 0.19 0.18 0.07 0.12 0.05 0.04
0.00 0.00 0.00 0.00 0.00 0.01 0.02 0.02 0.01 0.02 0.18 0.11 0.05 0.06 0.15 0.27 1.04 1.20 1.07 0.53 0.28 0.11 0.05 0.06 0.10 0.17 0.06 0.14 0.07 0.09 0.07 0.03
0.01 0.01 0.01 0.02 0.02 0.04 0.05 0.08 0.04 0.01 0.06 0.14 0.07 0.08 0.10 0.15 0.34 0.74 0.92 0.76 0.21 0.16 0.06 0.05 0.13 0.32 0.19 0.11 0.07 0.02 0.08 0.02
0.00 0.00 0.00 0.01 0.01 0.06 0.05 0.08 0.17 0.05 0.02 0.26 0.35 0.21 0.22 0.20 0.12 0.23 0.42 0.59 0.46 0.19 0.10 0.06 0.14 0.35 0.29 0.12 0.05 0.03 0.01 0.00
0.00 0.00 0.00 0.00 0.00 0.09 0.09 0.09 0.17 0.19 0.05 0.11 0.33 0.13 0.06 0.05 0.05 0.06 0.17 0.31 0.25 0.22 0.17 0.13 0.16 0.48 0.38 0.21 0.08 0.06 0.02 0.00
0.00 0.00 0.00 0.00 0.00 0.10 0.20 0.14 0.20 0.30 0.13 0.05 0.20 0.26 0.16 0.02 0.04 0.04 0.09 0.14 0.13 0.11 0.07 0.16 0.22 0.47 0.61 0.39 0.26 0.10 0.04 0.00
0.00 0.00 0.00 0.00 0.00 0.05 0.22 0.31 0.24 0.32 0.29 0.19 0.07 0.15 0.29 0.26 0.08 0.05 0.04 0.06 0.06 0.03 0.03 0.08 0.14 0.30 0.42 0.38 0.32 0.16 0.07 0.02
0.00 0.00 0.00 0.00 0.00 0.02 0.11 0.45 0.41 0.33 0.30 0.32 0.23 0.07 0.10 0.16 0.15 0.05 0.01 0.01 0.02 0.03 0.00 0.00 0.08 0.09 0.21 0.14 0.16 0.09 0.04 0.06
0.00 0.00 0.00 0.00 0.00 0.03 0.14 0.21 0.52 0.51 0.32 0.38 0.37 0.21 0.18 0.15 0.05 0.01 0.00 0.00 0.00 0.00 0.00 0.00 0.00 0.01 0.05 0.04 0.02 0.00 0.01 0.03
0.02 0.01 0.00 0.00 0.00 0.03 0.26 0.24 0.22 0.62 0.39 0.31 0.43 0.33 0.24 0.14 0.08 0.07 0.04 0.01 0.00 0.00 0.00 0.00 0.00 0.01 0.02 0.01 0.00 0.00 0.02 0.00
0.00 0.01 0.00 0.00 0.00 0.01 0.18 0.22 0.14 0.19 0.26 0.21 0.33 0.48 0.30 0.19 0.09 0.09 0.05 0.05 0.02 0.00 0.00 0.00 0.01 0.02 0.02 0.04 0.02 0.02 0.03 0.03
0.01 0.01 0.00 0.00 0.01 0.02 0.17 0.26 0.24 0.18 0.18 0.41 0.53 0.54 0.46 0.25 0.15 0.06 0.04 0.03 0.02 0.01 0.00 0.03 0.07 0.06 0.06 0.07 0.05 0.07 0.06 0.06
0.05 0.04 0.04 0.03 0.03 0.05 0.14 0.31 0.36 0.47 0.38 0.53 0.72 0.75 0.60 0.36 0.27 0.10 0.04 0.04 0.06 0.08 0.09 0.08 0.07 0.08 0.10 0.11 0.11 0.11 0.12 0.13
0.20 0.15 0.14 0.14 0.11 0.11 0.11 0.35 0.47 0.52 0.81 0.66 0.74 0.82 0.77 0.59 0.42 0.27 0.16 0.15 0.19 0.16 0.16 0.17 0.18 0.16 0.14 0.14 0.15 0.15 0.18 0.19
0.35 0.35 0.36 0.34 0.26 0.22 0.20 0.27 0.60 0.79 1.07 0.91 0.90 1.00 1.29 1.23 1.03 0.73 0.38 0.30 0.29 0.31 0.29 0.26 0.26 0.28 0.28 0.26 0.26 0.27 0.25 0.22
0.43 0.47 0.53 0.50 0.45 0.34 0.30 0.35 0.39 0.63 0.94 1.18 1.10 0.96 1.09 1.54 1.57 1.50 1.12 0.75 0.61 0.57 0.60 0.65 0.61 0.64 0.63 0.62 0.63 0.66 0.65 0.57
0.53 0.57 0.58 0.58 0.68 0.60 0.48 0.47 0.41 0.37 0.49 0.81 1.18 1.24 1.11 0.83 1.02 1.14 1.13 0.93 1.04 1.25 1.31 1.17 1.21 1.22 1.29 1.23 1.16 0.98 0.86 0.81
0.57 0.53 0.53 0.54 0.62 0.67 0.64 0.61 0.67 0.71 0.67 0.56 0.90 0.99 1.05 1.17 1.04 1.05 0.94 0.76 0.63 0.76 0.85 0.88 0.86 0.76 0.73 0.83 0.85 0.66 0.49 0.38
0.47 0.49 0.46 0.43 0.44 0.48 0.51 0.62 0.65 0.72 0.92 0.95 0.83 1.20 1.11 0.83 0.94 1.23 1.14 1.08 0.80 0.70 0.64 0.55 0.50 0.55 0.69 0.66 0.61 0.67 0.57 0.47

GFSFLT1_prec_precacc24_339.txt.gz
Total_Precipitation_Accumulation
0.00 0.00 0.00 0.00 0.00 0.00 0.02 0.03 0.03 0.05 0.40 0.22 0.16 0.19 0.19 0.85 1.13 1.20 0.77 0.63 0.50 0.24 0.07 0.04 0.05 0.11 0.19 0.18 0.07 0.13 0.06 0.04
0.00 0.00 0.00 0.00 0.00 0.01 0.04 0.10 0.11 0.15 0.23 0.12 0.07 0.10 0.21 0.30 1.06 1.21 1.13 0.79 0.68 0.38 0.13 0.07 0.10 0.17 0.06 0.14 0.07 0.10 0.09 0.04
0.00 0.00 0.01 0.02 0.02 0.04 0.05 0.11 0.16 0.17 0.17 0.17 0.10 0.14 0.19 0.27 0.43 0.77 0.97 0.95 0.53 0.42 0.19 0.07 0.13 0.32 0.19 0.11 0.07 0.03 0.10 0.06
0.00 0.00 0.00 0.01 0.01 0.06 0.05 0.09 0.22 0.18 0.19 0.42 0.44 0.32 0.35 0.31 0.19 0.26 0.47 0.64 0.56 0.24 0.13 0.07 0.14 0.42 0.35 0.14 0.06 0.03 0.04 0.15
0.00 0.00 0.00 0.00 0.00 0.09 0.09 0.11 0.19 0.33 0.32 0.34 0.45 0.24 0.12 0.08 0.05 0.11 0.19 0.36 0.33 0.28 0.19 0.14 0.17 0.53 0.54 0.32 0.11 0.07 0.03 0.07
0.00 0.00 0.00 0.00 0.00 0.10 0.20 0.15 0.24 0.37 0.35 0.41 0.42 0.39 0.28 0.08 0.09 0.11 0.14 0.17 0.18 0.15 0.10 0.18 0.23 0.50 0.71 0.55 0.35 0.16 0.08 0.03
0.00 0.00 0.00 0.00 0.00 0.05 0.22 0.31 0.28 0.38 0.34 0.36 0.39 0.31 0.40 0.29 0.14 0.11 0.08 0.10 0.08 0.04 0.04 0.09 0.15 0.34 0.53 0.57 0.47 0.28 0.15 0.08
0.00 0.00 0.00 0.00 0.00 0.02 0.11 0.46 0.43 0.38 0.35 0.37 0.43 0.42 0.30 0.25 0.22 0.11 0.07 0.05 0.04 0.03 0.00 0.00 0.08 0.09 0.26 0.29 0.41 0.34 0.19 0.15
0.00 0.00 0.00 0.00 0.00 0.03 0.14 0.21 0.52 0.53 0.37 0.44 0.53 0.43 0.50 0.39 0.22 0.09 0.06 0.04 0.02 0.02 0.00 0.00 0.00 0.02 0.06 0.07 0.12 0.22 0.25 0.19
0.02 0.01 0.00 0.00 0.00 0.03 0.26 0.24 0.22 0.62 0.39 0.36 0.52 0.61 0.68 0.60 0.29 0.16 0.08 0.06 0.03 0.04 0.03 0.00 0.00 0.01 0.02 0.01 0.01 0.07 0.21 0.22
0.00 0.01 0.01 0.00 0.00 0.00 0.17 0.22 0.14 0.19 0.25 0.21 0.37 0.63 0.62 0.56 0.33 0.21 0.09 0.09 0.07 0.03 0.02 0.01 0.02 0.02 0.03 0.05 0.03 0.05 0.08 0.11
0.01 0.01 0.01 0.00 0.00 0.00 0.16 0.25 0.23 0.17 0.15 0.36 0.50 0.54 0.59 0.60 0.59 0.21 0.17 0.10 0.08 0.07 0.06 0.05 0.08 0.06 0.07 0.07 0.05 0.06 0.05 0.05
0.05 0.03 0.02 0.00 0.00 0.01 0.09 0.28 0.34 0.45 0.33 0.45 0.65 0.72 0.60 0.49 0.66 0.41 0.24 0.17 0.13 0.09 0.16 0.14 0.09 0.10 0.10 0.10 0.09 0.08 0.09 0.10
0.16 0.11 0.07 0.03 0.00 0.01 0.03 0.27 0.40 0.50 0.76 0.61 0.65 0.67 0.64 0.53 0.42 0.37 0.31 0.30 0.26 0.16 0.11 0.17 0.16 0.18 0.15 0.14 0.14 0.12 0.12 0.14
0.32 0.29 0.23 0.16 0.11 0.07 0.06 0.15 0.48 0.76 1.00 0.78 0.76 0.66 0.75 0.83 0.78 0.59 0.33 0.31 0.29 0.33 0.22 0.22 0.23 0.25 0.26 0.21 0.20 0.19 0.18 0.19
0.41 0.42 0.44 0.34 0.26 0.14 0.09 0.14 0.20 0.55 0.91 1.13 1.03 0.88 0.82 0.89 0.84 0.82 0.63 0.52 0.47 0.39 0.42 0.35 0.38 0.35 0.26 0.31 0.34 0.48 0.57 0.57
0.50 0.47 0.44 0.44 0.45 0.43 0.32 0.27 0.23 0.22 0.44 0.77 1.15 1.21 1.08 0.76 0.85 0.87 0.75 0.52 0.54 0.51 0.45 0.44 0.40 0.46 0.70 0.76 0.98 0.95 0.86 0.82
0.57 0.53 0.49 0.47 0.55 0.54 0.54 0.52 0.55 0.61 0.58 0.51 0.88 0.99 1.01 1.14 1.03 1.02 0.84 0.60 0.47 0.58 0.58 0.52 0.53 0.51 0.59 0.65 0.68 0.59 0.47 0.38
0.47 0.49 0.46 0.43 0.42 0.46 0.49 0.59 0.61 0.65 0.83 0.89 0.81 1.18 1.09 0.80 0.92 1.18 1.09 1.02 0.73 0.69 0.65 0.60 0.57 0.55 0.67 0.70 0.71 0.69 0.56 0.47

GFSFLT1_prec_precacc24_345.txt.gz
Total_Precipitation_Accumulation
0.00 0.00 0.00 0.00 0.00 0.00 0.02 0.04 0.07 0.16 0.54 0.38 0.28 0.29 0.28 0.93 1.19 1.26 0.84 0.86 0.91 0.92 0.99 0.84 0.74 0.62 0.55 0.78 0.63 0.41 0.17 0.07
0.00 0.00 0.00 0.00 0.00 0.00 0.04 0.10 0.13 0.23 0.35 0.24 0.19 0.21 0.35 0.40 1.16 1.37 1.29 1.03 1.20 1.10 0.94 0.72 0.63 0.68 0.45 0.58 0.77 0.45 0.31 0.08
0.00 0.00 0.00 0.00 0.00 0.01 0.04 0.11 0.17 0.22 0.24 0.27 0.21 0.23 0.32 0.38 0.53 0.90 1.15 1.17 0.84 0.97 0.83 0.53 0.45 0.58 0.57 0.55 0.84 0.41 0.36 0.13
0.00 0.00 0.00 0.00 0.00 0.06 0.05 0.09 0.22 0.20 0.23 0.53 0.64 0.57 0.55 0.45 0.29 0.35 0.57 0.81 0.80 0.54 0.46 0.32 0.22 0.48 0.46 0.40 0.68 0.34 0.14 0.25
0.00 0.00 0.00 0.00 0.00 0.09 0.09 0.10 0.20 0.35 0.35 0.45 0.67 0.47 0.28 0.27 0.25 0.29 0.32 0.59 0.64 0.57 0.37 0.23 0.23 0.54 0.57 0.43 0.51 0.42 0.12 0.13
0.00 0.00 0.00 0.00 0.00 0.10 0.18 0.14 0.23 0.38 0.39 0.46 0.57 0.60 0.46 0.23 0.23 0.30 0.32 0.37 0.38 0.49 0.37 0.27 0.26 0.51 0.72 0.59 0.54 0.40 0.29 0.11
0.00 0.00 0.00 0.00 0.00 0.04 0.17 0.27 0.26 0.38 0.38 0.40 0.47 0.43 0.58 0.49 0.29 0.27 0.26 0.24 0.24 0.26 0.48 0.40 0.24 0.37 0.53 0.59 0.53 0.38 0.28 0.20
0.00 0.00 0.00 0.00 0.00 0.01 0.09 0.43 0.41 0.37 0.37 0.43 0.47 0.48 0.41 0.45 0.39 0.27 0.26 0.19 0.18 0.16 0.22 0.27 0.20 0.15 0.28 0.31 0.48 0.42 0.24 0.19
0.00 0.00 0.00 0.00 0.00 0.03 0.14 0.21 0.52 0.52 0.38 0.47 0.58 0.47 0.63 0.60 0.46 0.32 0.28 0.18 0.10 0.11 0.20 0.28 0.22 0.17 0.10 0.10 0.18 0.32 0.36 0.30
0.02 0.01 0.00 0.00 0.00 0.03 0.26 0.24 0.22 0.62 0.39 0.35 0.53 0.65 0.76 0.87 0.72 0.46 0.35 0.26 0.20 0.14 0.16 0.37 0.32 0.26 0.24 0.08 0.05 0.12 0.30 0.37
0.00 0.01 0.01 0.00 0.00 0.00 0.17 0.22 0.14 0.19 0.25 0.20 0.36 0.62 0.67 0.68 0.65 0.58 0.31 0.35 0.41 0.21 0.16 0.19 0.35 0.33 0.30 0.19 0.09 0.06 0.10 0.24
0.01 0.01 0.01 0.00 0.00 0.00 0.16 0.25 0.23 0.17 0.15 0.32 0.41 0.48 0.51 0.63 0.70 0.41 0.53 0.36 0.43 0.49 0.27 0.19 0.25 0.40 0.37 0.22 0.14 0.06 0.06 0.10
0.04 0.03 0.02 0.00 0.00 0.01 0.09 0.28 0.34 0.44 0.27 0.28 0.46 0.57 0.51 0.43 0.75 0.75 0.59 0.87 0.68 0.47 0.59 0.42 0.22 0.27 0.42 0.29 0.10 0.05 0.05 0.05
0.12 0.09 0.06 0.03 0.00 0.01 0.02 0.24 0.34 0.38 0.59 0.39 0.41 0.45 0.48 0.43 0.37 0.44 0.54 0.71 1.08 1.01 0.56 0.76 0.80 0.37 0.27 0.28 0.15 0.07 0.04 0.06
0.25 0.20 0.15 0.10 0.06 0.03 0.03 0.10 0.41 0.64 0.79 0.56 0.53 0.43 0.54 0.65 0.67 0.52 0.30 0.37 0.55 0.78 0.78 0.69 0.69 0.74 0.50 0.35 0.21 0.12 0.09 0.07
0.33 0.31 0.29 0.20 0.14 0.06 0.04 0.06 0.13 0.49 0.76 0.94 0.80 0.60 0.58 0.67 0.65 0.65 0.44 0.30 0.31 0.36 0.58 0.73 0.69 0.66 0.72 0.49 0.36 0.29 0.11 0.10
0.45 0.39 0.32 0.29 0.27 0.20 0.13 0.13 0.14 0.18 0.40 0.68 0.96 0.92 0.81 0.58 0.70 0.71 0.60 0.38 0.40 0.37 0.41 0.50 0.67 0.77 0.74 0.69 0.73 0.49 0.23 0.10
0.52 0.49 0.41 0.34 0.40 0.36 0.32 0.29 0.27 0.29 0.35 0.35 0.76 0.88 0.91 1.04 0.94 0.94 0.73 0.51 0.39 0.47 0.43 0.46 0.53 0.64 0.76 0.85 0.98 1.03 0.74 0.38
0.46 0.47 0.41 0.35 0.32 0.35 0.33 0.38 0.39 0.31 0.33 0.43 0.42 0.95 0.95 0.71 0.83 1.10 1.02 0.98 0.69 0.64 0.57 0.51 0.50 0.51 0.59 0.66 0.85 1.25 1.17 0.65

GFSFLT1_prec_precacc24_351.txt.gz
Total_Precipitation_Accumulation
0.00 0.00 0.00 0.00 0.00 0.00 0.02 0.04 0.07 0.16 0.53 0.38 0.27 0.29 0.27 0.63 1.06 1.19 0.89 0.95 1.04 1.10 1.31 1.51 1.59 1.23 1.19 1.32 0.97 0.57 0.30 0.13
0.00 0.00 0.00 0.00 0.00 0.00 0.04 0.09 0.12 0.22 0.34 0.24 0.19 0.20 0.34 0.35 0.78 1.31 1.24 1.12 1.30 1.28 1.34 1.36 1.42 1.51 0.99 1.09 1.38 0.89 0.61 0.28
0.00 0.00 0.00 0.00 0.00 0.01 0.04 0.09 0.15 0.21 0.24 0.27 0.22 0.24 0.31 0.38 0.48 0.84 1.18 1.29 0.97 1.08 1.09 0.98 1.09 1.22 1.25 1.07 1.42 1.10 0.94 0.41
0.00 0.00 0.00 0.00 0.00 0.06 0.05 0.09 0.17 0.19 0.23 0.53 0.64 0.57 0.55 0.45 0.32 0.37 0.61 0.91 0.93 0.67 0.67 0.69 0.80 1.05 0.93 0.84 1.27 0.83 0.62 0.59
0.00 0.00 0.00 0.00 0.00 0.09 0.09 0.10 0.16 0.31 0.35 0.45 0.67 0.47 0.28 0.28 0.29 0.34 0.38 0.68 0.74 0.73 0.56 0.45 0.66 1.15 1.07 0.80 0.89 0.98 0.45 0.45
0.00 0.00 0.00 0.00 0.00 0.10 0.18 0.13 0.20 0.30 0.38 0.47 0.57 0.61 0.47 0.23 0.24 0.34 0.38 0.45 0.49 0.63 0.53 0.54 0.64 0.91 1.24 0.96 0.77 0.94 0.79 0.32
0.00 0.00 0.00 0.00 0.00 0.03 0.16 0.27 0.24 0.35 0.36 0.40 0.47 0.43 0.59 0.50 0.30 0.30 0.34 0.35 0.40 0.41 0.63 0.63 0.66 1.11 1.09 1.00 0.70 0.73 0.67 0.63
0.00 0.00 0.00 0.00 0.00 0.01 0.08 0.41 0.40 0.37 0.35 0.43 0.47 0.48 0.42 0.46 0.40 0.28 0.29 0.30 0.34 0.36 0.40 0.50 0.66 0.57 0.77 0.69 0.72 0.61 0.54 0.69
0.00 0.00 0.00 0.00 0.00 0.03 0.14 0.21 0.48 0.51 0.37 0.45 0.58 0.47 0.64 0.60 0.47 0.34 0.29 0.24 0.22 0.27 0.37 0.49 0.51 0.68 0.48 0.35 0.36 0.41 0.49 0.56
0.02 0.01 0.00 0.00 0.00 0.03 0.26 0.24 0.20 0.52 0.38 0.31 0.45 0.65 0.76 0.87 0.73 0.47 0.36 0.29 0.25 0.26 0.30 0.50 0.49 0.57 0.74 0.47 0.33 0.30 0.37 0.47
0.00 0.01 0.01 0.00 0.00 0.00 0.16 0.21 0.12 0.11 0.20 0.19 0.25 0.52 0.67 0.68 0.65 0.58 0.31 0.36 0.43 0.27 0.30 0.36 0.49 0.48 0.67 0.96 0.70 0.45 0.23 0.27
0.00 0.00 0.01 0.00 0.00 0.00 0.11 0.24 0.22 0.16 0.13 0.22 0.22 0.27 0.45 0.63 0.70 0.41 0.54 0.36 0.43 0.51 0.35 0.33 0.38 0.57 0.59 0.80 1.06 0.82 0.45 0.25
0.02 0.02 0.01 0.00 0.00 0.00 0.06 0.24 0.32 0.43 0.26 0.17 0.21 0.31 0.32 0.41 0.75 0.75 0.59 0.87 0.69 0.48 0.61 0.47 0.33 0.41 0.64 0.66 0.54 0.87 1.03 0.64
0.05 0.06 0.05 0.02 0.00 0.00 0.01 0.19 0.30 0.33 0.54 0.34 0.25 0.31 0.37 0.38 0.36 0.45 0.54 0.72 1.08 1.02 0.57 0.77 0.84 0.52 0.51 0.64 0.60 0.55 0.55 0.71
0.14 0.16 0.12 0.07 0.04 0.02 0.02 0.04 0.30 0.53 0.68 0.51 0.47 0.33 0.37 0.44 0.54 0.48 0.30 0.36 0.54 0.77 0.78 0.69 0.70 0.81 0.66 0.63 0.76 0.75 0.72 0.57
0.18 0.21 0.21 0.14 0.08 0.05 0.03 0.04 0.08 0.35 0.63 0.86 0.77 0.56 0.43 0.46 0.49 0.54 0.40 0.30 0.30 0.34 0.55 0.70 0.68 0.68 0.80 0.56 0.41 0.41 0.32 0.32
0.18 0.24 0.21 0.20 0.17 0.12 0.07 0.08 0.09 0.12 0.29 0.54 0.91 0.88 0.74 0.52 0.51 0.52 0.49 0.33 0.38 0.35 0.36 0.44 0.64 0.77 0.81 0.72 0.75 0.52 0.35 0.27
0.16 0.22 0.24 0.20 0.26 0.22 0.18 0.17 0.17 0.14 0.19 0.24 0.63 0.77 0.85 1.02 0.87 0.79 0.60 0.39 0.32 0.43 0.37 0.34 0.41 0.54 0.70 0.80 0.97 1.08 0.94 0.63
0.12 0.16 0.19 0.19 0.17 0.21 0.19 0.21 0.26 0.20 0.17 0.21 0.27 0.82 0.89 0.70 0.80 1.07 0.96 0.92 0.61 0.55 0.48 0.39 0.34 0.35 0.40 0.49 0.75 1.21 1.21 0.82